| time (UTC) | temp F | wind direction | speed MPH | gust MPH | rain 1hr in | rain 24hr in | rain mn in | humidity % | barometer mb |
| 20260502162524 | 57 | 70 | 3.0 | 7.0 | 0.14 | 0.42 | 0.42 | 97 | 1011.5 |
| 20260502161519 | 58 | 41 | 1.0 | 4.0 | 0.12 | 0.39 | 0.38 | 97 | 1011.8 |
| 20260502160534 | 57 | 75 | 2.0 | 4.0 | 0.11 | 0.36 | 0.35 | 97 | 1011.5 |
| 20260502151530 | 58 | 43 | 2.0 | 7.0 | 0.11 | 0.27 | 0.26 | 97 | 1011.5 |
| 20260502150525 | 58 | 42 | 1.0 | 3.0 | 0.09 | 0.25 | 0.25 | 97 | 1012.0 |
| 20260502130528 | 57 | 54 | 3.0 | 6.0 | 0.00 | 0.16 | 0.15 | 97 | 1010.4 |
| 20260502123533 | 57 | 51 | 2.0 | 5.0 | 0.01 | 0.15 | 0.15 | 97 | 1011.2 |
| 20260502122527 | 57 | 36 | 2.0 | 3.0 | 0.02 | 0.15 | 0.15 | 97 | 1011.2 |
| 20260502121523 | 57 | 40 | 1.0 | 4.0 | 0.02 | 0.15 | 0.15 | 97 | 1010.8 |
| 20260502120518 | 56 | 91 | 1.0 | 2.0 | 0.02 | 0.15 | 0.15 | 97 | 1011.1 |
| 20260502115533 | 56 | 64 | 1.0 | 3.0 | 0.02 | 0.15 | 0.15 | 97 | 1011.3 |
| 20260502114528 | 56 | 55 | 1.0 | 3.0 | 0.02 | 0.15 | 0.15 | 97 | 1011.4 |
| 20260502113523 | 56 | 66 | 2.0 | 4.0 | 0.02 | 0.15 | 0.14 | 97 | 1011.5 |
| 20260502112518 | 56 | 73 | 1.0 | 3.0 | 0.01 | 0.14 | 0.13 | 97 | 1011.8 |
| 20260502111534 | 56 | 32 | 1.0 | 4.0 | 0.02 | 0.13 | 0.13 | 97 | 1011.7 |
| 20260502110528 | 56 | 38 | 1.0 | 4.0 | 0.02 | 0.13 | 0.13 | 97 | 1011.3 |
| 20260502105523 | 56 | 25 | 1.0 | 3.0 | 0.02 | 0.13 | 0.13 | 97 | 1010.9 |
| 20260502104519 | 56 | 43 | 2.0 | 3.0 | 0.03 | 0.13 | 0.13 | 97 | 1010.9 |
| 20260502103534 | 56 | 36 | 1.0 | 4.0 | 0.03 | 0.13 | 0.12 | 97 | 1010.7 |
| 20260502102529 | 56 | 37 | 2.0 | 3.0 | 0.03 | 0.13 | 0.12 | 97 | 1010.6 |
| 20260502101524 | 56 | 43 | 1.0 | 4.0 | 0.03 | 0.12 | 0.11 | 97 | 1010.7 |
| 20260502100519 | 56 | 24 | 2.0 | 4.0 | 0.03 | 0.11 | 0.11 | 97 | 1010.6 |
| 20260502090530 | 57 | 54 | 1.0 | 4.0 | 0.06 | 0.08 | 0.08 | 96 | 1010.6 |
| 20260502071516 | 58 | 48 | 2.0 | 4.0 | 0.00 | 0.02 | 0.02 | 96 | 1010.3 |
| 20260502070531 | 58 | 133 | 2.0 | 3.0 | 0.00 | 0.02 | 0.02 | 96 | 1010.4 |
| 20260502065527 | 58 | 89 | 2.0 | 4.0 | 0.00 | 0.02 | 0.02 | 96 | 1010.4 |
| 20260502064522 | 58 | 35 | 1.0 | 2.0 | 0.00 | 0.02 | 0.02 | 96 | 1010.5 |
| 20260502063517 | 58 | 33 | 1.0 | 2.0 | 0.00 | 0.02 | 0.02 | 96 | 1010.8 |
| 20260502062532 | 59 | 61 | 1.0 | 2.0 | 0.00 | 0.02 | 0.02 | 96 | 1010.8 |
| 20260502061528 | 59 | 41 | 0.0 | 1.0 | 0.00 | 0.02 | 0.02 | 96 | 1011.1 |
| 20260502060523 | 59 | 56 | 1.0 | 3.0 | 0.01 | 0.02 | 0.02 | 96 | 1011.0 |
| 20260502055518 | 59 | 43 | 0.0 | 2.0 | 0.01 | 0.02 | 0.02 | 95 | 1011.0 |
| 20260502054533 | 59 | 61 | 1.0 | 2.0 | 0.01 | 0.02 | 0.02 | 95 | 1011.0 |
| 20260502053529 | 59 | 48 | 0.0 | 2.0 | 0.01 | 0.02 | 0.02 | 95 | 1011.1 |
| 20260502052524 | 59 | 66 | 1.0 | 3.0 | 0.01 | 0.02 | 0.02 | 95 | 1011.0 |
| 20260502051519 | 59 | 86 | 2.0 | 2.0 | 0.02 | 0.02 | 0.02 | 94 | 1011.1 |
| 20260502050534 | 59 | 73 | 0.0 | 1.0 | 0.01 | 0.01 | 0.01 | 94 | 1011.4 |
| 20260502045529 | 59 | 0.0 | 1.0 | 0.00 | 0.01 | 0.00 | 94 | 1011.6 | |
| 20260502044524 | 59 | 103 | 0.0 | 1.0 | 0.01 | 0.01 | 0.00 | 93 | 1011.6 |
| 20260502043519 | 60 | 0.0 | 1.0 | 0.01 | 0.01 | 0.00 | 92 | 1011.7 | |
| 20260502042534 | 60 | 96 | 0.0 | 2.0 | 0.01 | 0.01 | 0.00 | 91 | 1011.7 |
| 20260502041529 | 60 | 87 | 2.0 | 2.0 | 0.00 | 0.00 | 0.00 | 90 | 1011.8 |
| 20260502040525 | 60 | 110 | 1.0 | 2.0 | 0.00 | 0.00 | 0.00 | 89 | 1011.9 |
| 20260502035520 | 60 | 98 | 1.0 | 2.0 | 0.00 | 0.00 | 0.00 | 87 | 1011.9 |
| 20260502034535 | 60 | 93 | 2.0 | 2.0 | 0.00 | 0.00 | 0.00 | 85 | 1011.9 |
| 20260502033530 | 60 | 91 | 1.0 | 2.0 | 0.00 | 0.00 | 0.00 | 83 | 1012.1 |
| 20260502032525 | 60 | 79 | 2.0 | 2.0 | 0.00 | 0.00 | 0.00 | 83 | 1011.9 |
| 20260502031520 | 61 | 84 | 1.0 | 2.0 | 0.00 | 0.00 | 0.00 | 82 | 1012.0 |
| 20260502030536 | 61 | 78 | 2.0 | 2.0 | 0.00 | 0.00 | 0.00 | 82 | 1012.2 |
| 20260502025531 | 61 | 75 | 2.0 | 2.0 | 0.00 | 0.00 | 0.00 | 82 | 1012.3 |
| 20260502024526 | 61 | 71 | 2.0 | 3.0 | 0.00 | 0.00 | 0.00 | 81 | 1012.4 |
| 20260502023521 | 61 | 66 | 2.0 | 3.0 | 0.00 | 0.00 | 0.00 | 81 | 1012.4 |
| 20260502022536 | 61 | 74 | 2.0 | 2.0 | 0.00 | 0.00 | 0.00 | 81 | 1012.7 |
| 20260502021531 | 61 | 91 | 1.0 | 2.0 | 0.00 | 0.00 | 0.00 | 81 | 1012.7 |
| 20260502020527 | 61 | 92 | 1.0 | 2.0 | 0.00 | 0.00 | 0.00 | 80 | 1012.8 |
| 20260502015521 | 61 | 87 | 0.0 | 2.0 | 0.00 | 0.00 | 0.00 | 80 | 1012.8 |
| 20260502014516 | 61 | 82 | 1.0 | 3.0 | 0.00 | 0.00 | 0.00 | 79 | 1012.5 |
| 20260502013531 | 62 | 83 | 1.0 | 3.0 | 0.00 | 0.00 | 0.00 | 79 | 1012.6 |
| 20260502012526 | 62 | 62 | 1.0 | 2.0 | 0.00 | 0.00 | 0.00 | 78 | 1012.6 |
| 20260502011521 | 62 | 58 | 2.0 | 3.0 | 0.00 | 0.00 | 0.00 | 78 | 1012.7 |
| 20260502010517 | 62 | 71 | 2.0 | 3.0 | 0.00 | 0.00 | 0.00 | 77 | 1012.4 |
| 20260502005532 | 62 | 71 | 2.0 | 3.0 | 0.00 | 0.00 | 0.00 | 76 | 1012.3 |
| 20260502004527 | 62 | 85 | 2.0 | 4.0 | 0.00 | 0.00 | 0.00 | 76 | 1012.3 |
| 20260502003522 | 62 | 78 | 1.0 | 3.0 | 0.00 | 0.00 | 0.00 | 77 | 1012.3 |
| 20260502002517 | 62 | 71 | 2.0 | 3.0 | 0.00 | 0.00 | 0.00 | 76 | 1012.0 |
| 20260502001532 | 62 | 73 | 2.0 | 4.0 | 0.00 | 0.00 | 0.00 | 76 | 1011.9 |
| 20260502000527 | 62 | 70 | 2.0 | 3.0 | 0.00 | 0.00 | 0.00 | 76 | 1011.9 |
| 20260501235522 | 62 | 77 | 2.0 | 4.0 | 0.00 | 0.00 | 0.00 | 76 | 1011.9 |
| 20260501234517 | 63 | 63 | 2.0 | 4.0 | 0.00 | 0.00 | 0.00 | 75 | 1011.8 |
| 20260501233532 | 63 | 71 | 2.0 | 4.0 | 0.00 | 0.00 | 0.00 | 74 | 1011.8 |
| 20260501232526 | 63 | 85 | 2.0 | 4.0 | 0.00 | 0.00 | 0.00 | 74 | 1011.9 |
| 20260501231520 | 63 | 73 | 2.0 | 4.0 | 0.00 | 0.00 | 0.00 | 74 | 1011.9 |
| 20260501230536 | 64 | 66 | 2.0 | 4.0 | 0.00 | 0.00 | 0.00 | 74 | 1012.1 |
| 20260501225531 | 64 | 52 | 3.0 | 5.0 | 0.00 | 0.00 | 0.00 | 73 | 1012.1 |
| 20260501224526 | 64 | 57 | 2.0 | 4.0 | 0.00 | 0.00 | 0.00 | 72 | 1012.2 |
| 20260501223521 | 64 | 72 | 2.0 | 3.0 | 0.00 | 0.00 | 0.00 | 72 | 1012.2 |
| 20260501222536 | 65 | 75 | 2.0 | 4.0 | 0.00 | 0.00 | 0.00 | 72 | 1012.1 |
| 20260501221531 | 65 | 60 | 3.0 | 5.0 | 0.00 | 0.00 | 0.00 | 71 | 1012.3 |
| 20260501220527 | 66 | 48 | 2.0 | 4.0 | 0.00 | 0.00 | 0.00 | 71 | 1012.2 |
| 20260501215522 | 66 | 53 | 3.0 | 5.0 | 0.00 | 0.00 | 0.00 | 70 | 1012.1 |
| 20260501214516 | 66 | 59 | 2.0 | 4.0 | 0.00 | 0.00 | 0.00 | 71 | 1012.1 |
| 20260501213532 | 67 | 61 | 2.0 | 4.0 | 0.00 | 0.00 | 0.00 | 70 | 1012.2 |
| 20260501212527 | 67 | 87 | 2.0 | 4.0 | 0.00 | 0.00 | 0.00 | 69 | 1012.0 |
| 20260501211522 | 66 | 44 | 3.0 | 6.0 | 0.00 | 0.00 | 0.00 | 70 | 1012.5 |
| 20260501210517 | 66 | 70 | 2.0 | 4.0 | 0.00 | 0.00 | 0.00 | 70 | 1012.4 |
| 20260501205532 | 66 | 74 | 3.0 | 6.0 | 0.00 | 0.00 | 0.00 | 69 | 1012.2 |
| 20260501204528 | 67 | 66 | 3.0 | 5.0 | 0.00 | 0.00 | 0.00 | 68 | 1012.3 |
| 20260501203522 | 67 | 42 | 2.0 | 5.0 | 0.00 | 0.00 | 0.00 | 69 | 1012.5 |
| 20260501202518 | 66 | 48 | 3.0 | 5.0 | 0.00 | 0.00 | 0.00 | 69 | 1012.6 |
| 20260501201533 | 66 | 63 | 3.0 | 6.0 | 0.00 | 0.00 | 0.00 | 68 | 1012.6 |
| 20260501200528 | 66 | 54 | 2.0 | 4.0 | 0.00 | 0.00 | 0.00 | 69 | 1012.5 |
| 20260501195523 | 65 | 66 | 2.0 | 5.0 | 0.00 | 0.00 | 0.00 | 70 | 1012.5 |
| 20260501194518 | 65 | 98 | 2.0 | 5.0 | 0.00 | 0.00 | 0.00 | 70 | 1012.7 |
| 20260501193534 | 65 | 64 | 3.0 | 5.0 | 0.00 | 0.00 | 0.00 | 70 | 1012.7 |
| 20260501192529 | 65 | 72 | 3.0 | 6.0 | 0.00 | 0.00 | 0.00 | 70 | 1012.8 |
| 20260501191524 | 65 | 72 | 3.0 | 5.0 | 0.00 | 0.00 | 0.00 | 70 | 1012.9 |
| 20260501190519 | 66 | 70 | 3.0 | 5.0 | 0.00 | 0.00 | 0.00 | 69 | 1012.9 |
| 20260501185534 | 65 | 45 | 3.0 | 5.0 | 0.00 | 0.00 | 0.00 | 70 | 1013.2 |
| 20260501184529 | 66 | 90 | 3.0 | 4.0 | 0.00 | 0.00 | 0.00 | 70 | 1013.5 |
| 20260501183525 | 66 | 73 | 3.0 | 6.0 | 0.00 | 0.00 | 0.00 | 70 | 1013.6 |
| 20260501182520 | 66 | 48 | 3.0 | 5.0 | 0.00 | 0.00 | 0.00 | 70 | 1013.6 |
| 20260501181535 | 65 | 73 | 2.0 | 4.0 | 0.00 | 0.00 | 0.00 | 73 | 1013.7 |
| 20260501180530 | 64 | 76 | 3.0 | 5.0 | 0.00 | 0.00 | 0.00 | 72 | 1013.4 |
| 20260501175525 | 64 | 87 | 3.0 | 5.0 | 0.00 | 0.00 | 0.00 | 72 | 1014.0 |
| 20260501174520 | 65 | 50 | 3.0 | 7.0 | 0.00 | 0.00 | 0.00 | 72 | 1014.1 |
| 20260501173535 | 65 | 73 | 3.0 | 5.0 | 0.00 | 0.00 | 0.00 | 72 | 1013.6 |
| 20260501172531 | 65 | 65 | 3.0 | 6.0 | 0.00 | 0.00 | 0.00 | 71 | 1013.7 |
| 20260501171526 | 65 | 74 | 3.0 | 5.0 | 0.00 | 0.00 | 0.00 | 72 | 1013.6 |
| 20260501170521 | 65 | 76 | 3.0 | 5.0 | 0.00 | 0.00 | 0.00 | 73 | 1013.9 |
| 20260501165536 | 65 | 54 | 3.0 | 7.0 | 0.00 | 0.00 | 0.00 | 73 | 1014.0 |
| 20260501164531 | 65 | 80 | 4.0 | 6.0 | 0.00 | 0.00 | 0.00 | 74 | 1014.0 |
| 20260501163527 | 65 | 76 | 3.0 | 6.0 | 0.00 | 0.00 | 0.00 | 74 | 1014.2 |